Zurück zum Katalog

THOR ABLESTAR DEB

AktivLEO
NORAD 232·DEBRIS·🇺🇸 United States

Gestartet Jun 29, 1961 von Cape Canaveral Space Force Station

Loading…

Nächste Überflüge (nächste 24 Stunden)

TLE

AktuellSource: Space-Track

Epoche: Sep 5, 2026, 12:15 UTC

1 00232U 61015BQ  26248.51050393  .00000073  00000-0  10047-3 0  9993
2 00232  66.8225  14.2480 0052077  43.3027 317.2131 14.00828935318243

Verfolge THOR ABLESTAR DEB in Echtzeit mit AllMySat

Download on the App Store